Погода в Клязьминском Городке

Россия / Владимирская область     56°26′46″N   41°30′27″E
темп.,
°C
ветер,
м/с
пор.,
м/с
влажн.,
%
обл.,
%
осадки,
мм/ч
давл.,
гПа
погр.,
м
25 июля, вс
вс2500:00+14сз1255100 0.0 101717
03:00+13зсз2458100 0.0 101880
06:00+12сз126421 0.0 101979
09:00+19з22425 0.0 1020722
12:00+21з353292 0.0 10202526
15:00+21з4436100 0.0 10201971
18:00+21юз023953 0.0 1020945
21:00+17зюз115189 0.0 102112
26 июля, пн
пн2600:00+16зюз1154100 0.0 102112
03:00+15з2255100 0.0 102228
06:00+16юз245829 0.0 1022131
09:00+20з354943 0.0 1022462
12:00+25зсз453163 0.0 10222636
15:00+25зсз653385 0.0 10212428
18:00+23зсз46406 0.0 10211101
21:00+20юз334965 0.0 102158
27 июля, вт
вт2700:00+17зюз34658 0.0 102182
03:00+15з237533 0.0 102146
06:00+17сз24745 0.0 1021134
09:00+23ссз24495 0.0 1021691
12:00+26сз3538100 0.0 10202624
15:00+23ссв005456 0.0 101927
18:00+22з4657100 0.1 1018428
21:00+16юв259240 0.4 1019117
28 июля, ср
ср2800:00+15ююз229252 0.3 101826
03:00+14зсз119326 1.0 101810
06:00+16с01855 0.1 101742
09:00+22ююз11613 0.1 1016457
12:00+28юз23390 0.0 10141706
15:00+29зюз3532100 0.0 10123058
18:00+27ююз4543100 0.0 1011906
21:00+18юз3388100 1.2 101158
29 июля, чт
чт2900:00+17зюз2496100 0.1 1010116
03:00+16ююв2598100 1.9 1009207
06:00+17ююв4997100 3.1 1007430
09:00+17юв3794100 3.9 1006481
12:00+18ю2391100 0.1 1005397
15:00+18ююз119792 1.7 100596
18:00+20з348771 0.5 1004610
21:00+17з25977 1.3 1004121